Latest Weather Observations for Spitfire Channel

IDQ60801

Issued at 8:32 pm EST Wednesday 10 February 2016 (issued every 30 minutes, with the page automatically refreshed every 10 minutes)

About weather observations | Map of weather stations | Latest weather observations for QLD | Other Formats
Station Details ID: 040927 Name: SPITFIRE CHANNEL BEACON Lat: -27.05 Lon: 153.27 Height: 7.0 m
Data from the previous 72 hours. | See also: Recent months for locations in Queensland
Date/Time
EST
Temp
°C
App
Temp
°C
Dew
Point
Rel
Hum
%
Delta-T
°C
Wind Press
QNH
hPa
Press
MSL
hPa
Rain
since 9 am
mm
Dir
 
Spd
km/h
Gust
km/h
Spd
kts
Gust
kts
10/08:30pm - - - - - ESE 30 35 16 19 - - -
10/08:00pm - - - - - ESE 32 39 17 21 - - -
10/07:30pm - - - - - ESE 33 43 18 23 - - -
10/07:00pm - - - - - ESE 26 32 14 17 - - -
10/06:30pm - - - - - ESE 30 35 16 19 - - -
10/06:00pm - - - - - ESE 28 33 15 18 - - -
10/05:30pm - - - - - ESE 30 35 16 19 - - -
10/05:00pm - - - - - ESE 28 33 15 18 - - -
10/04:30pm - - - - - ESE 30 35 16 19 - - -
10/04:00pm - - - - - ESE 33 39 18 21 - - -
10/03:30pm - - - - - ESE 32 39 17 21 - - -
10/03:00pm - - - - - ESE 32 37 17 20 - - -
10/02:30pm - - - - - ESE 30 41 16 22 - - -
10/02:08pm - - - - - ESE 28 48 15 26 - - -
10/02:00pm - - - - - ESE 32 48 17 26 - - -
10/01:30pm - - - - - SE 30 33 16 18 - - -
10/01:00pm - - - - - SE 26 30 14 16 - - -
10/12:30pm - - - - - ESE 33 41 18 22 - - -
10/12:00pm - - - - - SE 26 35 14 19 - - -
10/11:30am - - - - - SSE 28 33 15 18 - - -
10/11:00am - - - - - SSE 28 33 15 18 - - -
10/10:30am - - - - - SSE 30 35 16 19 - - -
10/10:00am - - - - - SE 33 41 18 22 - - -
10/09:30am - - - - - SE 37 43 20 23 - - -
10/09:00am - - - - - SE 37 44 20 24 - - -
10/08:30am - - - - - SE 35 43 19 23 - - -
10/08:00am - - - - - SSE 33 39 18 21 - - -
10/07:30am - - - - - SE 35 43 19 23 - - -
10/07:00am - - - - - SSE 32 37 17 20 - - -
10/06:30am - - - - - SSE 37 43 20 23 - - -
10/06:00am - - - - - SSE 35 41 19 22 - - -
10/05:30am - - - - - SSE 35 43 19 23 - - -
10/05:00am - - - - - SSE 35 43 19 23 - - -
10/04:30am - - - - - SSE 35 43 19 23 - - -
10/04:00am - - - - - SSE 33 39 18 21 - - -
10/03:30am - - - - - SSE 32 37 17 20 - - -
10/03:00am - - - - - SSE 32 37 17 20 - - -
10/02:30am - - - - - SE 33 39 18 21 - - -
10/02:00am - - - - - SE 33 37 18 20 - - -
10/01:30am - - - - - SE 32 37 17 20 - - -
10/01:00am - - - - - SE 35 39 19 21 - - -
10/12:30am - - - - - SE 32 39 17 21 - - -
10/12:00am - - - - - SE 37 43 20 23 - - -
 
Date/Time
EST
Temp
°C
App
Temp
°C
Dew
Point
Rel
Hum
%
Delta-T
°C
Wind Press
QNH
hPa
Press
MSL
hPa
Rain
since 9 am
mm
Dir
 
Spd
km/h
Gust
km/h
Spd
kts
Gust
kts
09/11:30pm - - - - - SE 37 43 20 23 - - -
09/11:00pm - - - - - SE 24 32 13 17 - - -
09/10:30pm - - - - - SE 33 41 18 22 - - -
09/10:00pm - - - - - SE 35 43 19 23 - - -
09/09:30pm - - - - - SSE 30 35 16 19 - - -
09/09:00pm - - - - - ESE 30 44 16 24 - - -
09/08:30pm - - - - - ESE 30 44 16 24 - - -
09/08:28pm - - - - - ESE 28 44 15 24 - - -
09/08:16pm - - - - - ESE 32 43 17 23 - - -
09/08:00pm - - - - - SE 37 46 20 25 - - -
09/07:30pm - - - - - SE 39 48 21 26 - - -
09/07:00pm - - - - - SE 43 52 23 28 - - -
09/06:30pm - - - - - SE 43 52 23 28 - - -
09/06:00pm - - - - - SE 37 46 20 25 - - -
09/05:30pm - - - - - SE 39 48 21 26 - - -
09/05:00pm - - - - - SE 35 43 19 23 - - -
09/04:30pm - - - - - SE 35 43 19 23 - - -
09/04:00pm - - - - - SE 37 46 20 25 - - -
09/03:30pm - - - - - ESE 35 43 19 23 - - -
09/03:00pm - - - - - SE 37 44 20 24 - - -
09/02:30pm - - - - - SE 37 48 20 26 - - -
09/02:00pm - - - - - SE 37 43 20 23 - - -
09/01:30pm - - - - - SE 37 43 20 23 - - -
09/01:00pm - - - - - SE 35 43 19 23 - - -
09/12:30pm - - - - - SE 37 46 20 25 - - -
09/12:00pm - - - - - ESE 39 44 21 24 - - -
09/11:30am - - - - - SE 39 46 21 25 - - -
09/11:00am - - - - - SE 39 46 21 25 - - -
09/10:30am - - - - - SE 35 43 19 23 - - -
09/10:00am - - - - - SE 37 44 20 24 - - -
09/09:30am - - - - - SE 33 43 18 23 - - -
09/09:00am - - - - - SE 37 43 20 23 - - -
09/08:30am - - - - - SSE 30 35 16 19 - - -
09/08:00am - - - - - SSE 30 35 16 19 - - -
09/07:30am - - - - - SSE 32 37 17 20 - - -
09/07:00am - - - - - SSE 30 37 16 20 - - -
09/06:30am - - - - - SSE 30 35 16 19 - - -
09/06:00am - - - - - SSE 28 35 15 19 - - -
09/05:30am - - - - - SSE 30 35 16 19 - - -
09/05:00am - - - - - SSE 32 35 17 19 - - -
09/04:30am - - - - - SSE 33 43 18 23 - - -
09/04:00am - - - - - SE 35 44 19 24 - - -
09/03:30am - - - - - SSE 33 41 18 22 - - -
09/03:00am - - - - - SSE 30 41 16 22 - - -
09/02:30am - - - - - SSE 35 43 19 23 - - -
09/02:00am - - - - - SSE 39 48 21 26 - - -
09/01:30am - - - - - SSE 37 44 20 24 - - -
09/01:00am - - - - - SE 39 44 21 24 - - -
09/12:30am - - - - - SE 41 48 22 26 - - -
09/12:00am - - - - - SE 41 48 22 26 - - -
 
Date/Time
EST
Temp
°C
App
Temp
°C
Dew
Point
Rel
Hum
%
Delta-T
°C
Wind Press
QNH
hPa
Press
MSL
hPa
Rain
since 9 am
mm
Dir
 
Spd
km/h
Gust
km/h
Spd
kts
Gust
kts
08/11:30pm - - - - - SE 37 44 20 24 - - -
08/11:00pm - - - - - SE 35 41 19 22 - - -
08/10:30pm - - - - - SE 39 46 21 25 - - -
08/10:00pm - - - - - SSE 35 43 19 23 - - -
08/09:30pm - - - - - SE 33 43 18 23 - - -
08/09:00pm - - - - - SE 37 43 20 23 - - -
08/08:30pm - - - - - SE 37 46 20 25 - - -
08/08:00pm - - - - - SE 35 43 19 23 - - -
08/07:30pm - - - - - ESE 41 50 22 27 - - -
08/07:00pm - - - - - ESE 33 43 18 23 - - -
08/06:30pm - - - - - ESE 37 46 20 25 - - -
08/06:00pm - - - - - ESE 37 44 20 24 - - -
08/05:30pm - - - - - ESE 39 46 21 25 - - -
08/05:00pm - - - - - ESE 33 41 18 22 - - -
08/04:30pm - - - - - ESE 37 43 20 23 - - -
08/04:00pm - - - - - ESE 39 44 21 24 - - -
08/03:30pm - - - - - ESE 33 39 18 21 - - -
08/03:00pm - - - - - ESE 30 35 16 19 - - -
08/02:30pm - - - - - ESE 30 33 16 18 - - -
08/02:00pm - - - - - ESE 30 35 16 19 - - -
08/01:30pm - - - - - ESE 30 35 16 19 - - -
08/01:00pm - - - - - SE 28 32 15 17 - - -
08/12:30pm - - - - - SE 32 37 17 20 - - -
08/12:00pm - - - - - SSE 28 33 15 18 - - -
08/11:30am - - - - - SSE 26 30 14 16 - - -
08/11:00am - - - - - SSE 24 28 13 15 - - -
08/10:30am - - - - - SSE 24 30 13 16 - - -
08/10:00am - - - - - SSE 26 32 14 17 - - -
08/09:30am - - - - - SSE 30 33 16 18 - - -
08/09:00am - - - - - SSE 30 37 16 20 - - -
08/08:30am - - - - - SSE 30 35 16 19 - - -
08/08:00am - - - - - SSE 28 33 15 18 - - -
08/07:30am - - - - - SSE 28 33 15 18 - - -
08/07:00am - - - - - SSE 28 35 15 19 - - -
08/06:30am - - - - - SSE 28 33 15 18 - - -
08/06:00am - - - - - SSE 28 33 15 18 - - -
08/05:30am - - - - - SSE 30 35 16 19 - - -
08/05:00am - - - - - SSE 30 35 16 19 - - -
08/04:30am - - - - - SSE 26 32 14 17 - - -
08/04:00am - - - - - SSE 28 33 15 18 - - -
08/03:30am - - - - - SSE 28 37 15 20 - - -
08/03:00am - - - - - SSE 32 39 17 21 - - -
08/02:30am - - - - - SSE 30 37 16 20 - - -
08/02:00am - - - - - SSE 30 37 16 20 - - -
08/01:30am - - - - - SSE 30 33 16 18 - - -
08/01:00am - - - - - SSE 28 35 15 19 - - -
08/12:30am - - - - - SE 28 33 15 18 - - -
08/12:00am - - - - - SE 32 39 17 21 - - -
 
Date/Time
EST
Temp
°C
App
Temp
°C
Dew
Point
Rel
Hum
%
Delta-T
°C
Wind Press
QNH
hPa
Press
MSL
hPa
Rain
since 9 am
mm
Dir
 
Spd
km/h
Gust
km/h
Spd
kts
Gust
kts
07/11:30pm - - - - - SE 32 39 17 21 - - -
07/11:00pm - - - - - SE 33 39 18 21 - - -
07/10:30pm - - - - - SE 30 35 16 19 - - -
07/10:00pm - - - - - ESE 33 39 18 21 - - -
07/09:30pm - - - - - SE 33 41 18 22 - - -
07/09:00pm - - - - - SE 32 39 17 21 - - -

Other Formats:

Comma delimited format used in spreadsheet applications
http://www.bom.gov.au/fwo/IDQ60801/IDQ60801.94581.axf

JavaScript Object Notation format (JSON) in row-major order
http://www.bom.gov.au/fwo/IDQ60801/IDQ60801.94581.json